Wautoma, WI

4:07 PM CDT on July 23, 2017 (GMT -0500)
Wautoma

Weather History for KY50 - January, 2014

Change the Weather History Date:

Monday, January 13, 2014

  Actual Average (KPCZ) Record (KPCZ)
Temperature  
Mean Temperature 29 °F -  
Max Temperature 37 °F 25 °F 52 °F (1961)
Min Temperature 17 °F 7 °F -18 °F (1954)
Degree Days  
Heating Degree Days 36    
Moisture  
Dew Point -    
Average Humidity    
Maximum Humidity    
Minimum Humidity    
Precipitation  
Precipitation 0.00 in - - ()
Sea Level Pressure  
Sea Level Pressure 29.58 in    
Wind  
Wind Speed 7 mph (West)    
Max Wind Speed 18 mph    
Max Gust Speed 28 mph    
Visibility 10 miles    
Events      
Averages and records for this station are not official NWS values.
T = Trace of Precipitation, MM = Missing Value Source: NWS Daily Summary

Daily Weather History Graph

Daily Weather History Graph

Search for Another Location

Airport or City:

Trip Planner

Search our weather history database for the weather conditions in past years. The results will help you decide how hot, cold, wet, or windy it might be!

Date:

Astronomy

Jan. 13, 2014 Rise Set
Actual Time 7:29 AM CST 4:42 PM CST
Civil Twilight 6:57 AM CST 5:14 PM CST
Nautical Twilight 6:21 AM CST 5:50 PM CST
Astronomical Twilight 5:47 AM CST 6:25 PM CST
Moon 2:58 PM CST (1/13) 5:17 AM CST (1/13)
Length of Visible Light 10h 17m
Length of Day
9h 12m
Waxing Gibbous, 95% of the Moon is Illuminated
Jan 13
Waxing Gibbous
Jan 15
Full
Jan 23
Last Quarter
Jan 30
New
Feb 6
First Quarter

Hourly Weather History & Observations

Time (CST) Temp. Windchill Dew Point Humidity Pressure Visibility Wind Dir Wind Speed Gust Speed Precip Events Conditions
12:56 AM 34.9 °F 30.8 °F - N/A% 29.50 in 10.0 mi SSE 4.6 mph - 0.00 in   Partly Cloudy
1:56 AM 34.9 °F 32.0 °F - N/A% 29.52 in 10.0 mi SW 3.5 mph - N/A   Clear
2:56 AM 35.6 °F - - N/A% 29.49 in 10.0 mi Calm Calm - N/A   Scattered Clouds
3:56 AM 34.0 °F - - N/A% 29.50 in 10.0 mi Calm Calm - N/A   Mostly Cloudy
4:56 AM 34.0 °F 31.0 °F - N/A% 29.50 in 10.0 mi SW 3.5 mph - N/A   Mostly Cloudy
5:56 AM 33.8 °F - - N/A% 29.48 in 10.0 mi Calm Calm - N/A   Mostly Cloudy
6:56 AM 34.9 °F 30.8 °F - N/A% 29.52 in 10.0 mi SW 4.6 mph - N/A   Scattered Clouds
7:56 AM 34.9 °F 29.0 °F - N/A% 29.52 in 10.0 mi West 6.9 mph - N/A   Mostly Cloudy
8:56 AM 36.9 °F 30.1 °F - N/A% 29.53 in 10.0 mi West 9.2 mph - N/A   Mostly Cloudy
9:56 AM 36.0 °F 27.5 °F - N/A% 29.54 in 10.0 mi WNW 12.7 mph 21.9 mph N/A   Mostly Cloudy
10:37 AM 37.4 °F 29.8 °F - N/A% 29.53 in 10.0 mi NW 11.5 mph - N/A   Mostly Cloudy
10:56 AM 36.0 °F 25.6 °F - N/A% 29.55 in 10.0 mi WNW 18.4 mph 27.6 mph N/A   Partly Cloudy
11:24 AM 35.6 °F 26.2 °F - N/A% 29.53 in 10.0 mi NW 15.0 mph - N/A   Mostly Cloudy
11:56 AM 34.0 °F 23.0 °F - N/A% 29.55 in 10.0 mi WNW 18.4 mph 21.9 mph N/A   Overcast
12:56 PM 32.9 °F 23.2 °F - N/A% 29.57 in 10.0 mi WNW 13.8 mph - N/A   Overcast
1:56 PM 32.9 °F 22.4 °F - N/A% 29.57 in 10.0 mi NW 16.1 mph - N/A   Mostly Cloudy
2:15 PM 33.8 °F 22.8 °F - N/A% 29.55 in 10.0 mi West 18.4 mph - N/A   Scattered Clouds
2:56 PM 34.0 °F 25.0 °F - N/A% 29.59 in 10.0 mi West 12.7 mph 18.4 mph N/A   Clear
3:56 PM 34.0 °F 25.5 °F - N/A% 29.61 in 10.0 mi WNW 11.5 mph - N/A   Clear
4:56 PM 31.1 °F 22.4 °F - N/A% 29.63 in 10.0 mi WNW 10.4 mph - N/A   Clear
5:56 PM 28.0 °F 21.7 °F - N/A% 29.66 in 10.0 mi West 5.8 mph - N/A   Clear
6:56 PM 27.1 °F 18.2 °F - N/A% 29.67 in 10.0 mi WSW 9.2 mph - N/A   Clear
7:56 PM 26.1 °F 17.6 °F - N/A% 29.68 in 10.0 mi West 8.1 mph - N/A   Clear
8:56 PM 25.2 °F 16.5 °F - N/A% 29.70 in 10.0 mi West 8.1 mph - N/A   Clear
9:56 PM 23.0 °F 17.0 °F - N/A% 29.71 in 10.0 mi WSW 4.6 mph - N/A   Clear
10:56 PM 21.0 °F - - N/A% 29.70 in 10.0 mi Calm Calm - N/A   Partly Cloudy
11:56 PM 17.6 °F - - N/A% 29.67 in 10.0 mi Calm Calm - N/A   Scattered Clouds